Погода в Холуе

Россия / Ивановская область     56°34′40″N   41°51′59″E
темп.,
°C
ветер,
м/с
пор.,
м/с
влажн.,
%
обл.,
%
осадки,
мм/ч
давл.,
гПа
погр.,
м
4 декабря, сб
сб400:00+1ю51498100 4.1 998791
03:00+1зюз51098100 5.4 998630
06:000зюз6118771 0.5 998959
09:00−3зюз6128699 0.5 1001903
12:00−2юз7127889 0.1 10021135
15:00−3зюз6118499 0.2 10041134
18:00−4зюз6118395 0.1 1006786
21:00−5зюз5108891 0.1 1008764
5 декабря, вс
вс500:00−6з4988100 0.0 1010607
03:00−7зюз379161 0.1 1012404
06:00−8з249387 0.0 1014268
09:00−8с119292 0.1 1015164
12:00−6св118596 0.1 1016304
15:00−7св239098 0.3 1017246
18:00−8св349196 0.3 1018229
21:00−8св349197 0.6 1019240
6 декабря, пн
пн600:00−8всв349194 0.4 1020228
03:00−7всв3594100 0.8 1021248
06:00−7всв3594100 0.6 1021262
09:00−6всв3594100 1.2 1022255
12:00−5в3490100 0.4 1023258
15:00−4в2493100 0.4 1023210
18:00−4в2697100 0.0 1023166
21:00−4вюв2694100 0.0 1023163
7 декабря, вт
вт700:00−4юв388997 0.0 1023220
03:00−3юв41084100 0.0 1022319
06:00−2юв51180100 0.0 1020610
09:00−3юв51296100 1.5 1018639
12:00−2юв61496100 3.8 1016630
15:00−2ююв41296100 6.3 1014698
18:00−1юв3998100 1.0 1013412
21:00−1ююв3798100 1.6 1012258
8 декабря, ср
ср800:000ююв2699100 1.3 1012297
03:000ю13100100 3.6 1011183
06:000зсз2499100 1.6 1011252
09:00−2зсз259799 2.4 1013223
12:00−3сз359478 0.0 1015259
15:00−6сз129791 0.0 101625
18:00−8ссз259778 0.0 1018103
21:00−9с2595100 0.0 1019143